Погода в Кордоне

Россия / Пермский край     57°24′40″N   57°55′00″E
темп.,
°C
ветер,
м/с
пор.,
м/с
влажн.,
%
обл.,
%
осадки,
мм/ч
давл.,
гПа
погр.,
м
21 июня, пн
пн2123:00+11с310475 0.0 1020521
02:00+7с11635 0.0 102210
05:00+5с11696 0.0 102420
08:00+13всв23474 0.0 1024546
11:00+18з113472 0.0 10231213
14:00+20з233035 0.0 10221465
17:00+20з3440100 0.0 10211177
20:00+18з24625 0.0 1020197
22 июня, вт
вт2223:00+13ююз118579 0.1 102011
02:00+12ююз2297100 0.0 101931
05:00+13ююз259866 0.2 1019134
08:00+17зюз359441 0.3 1017254
11:00+25зсз475737 0.3 1016936
14:00+29сз6113598 0.0 10162557
17:00+28сз59385 0.0 10162397
20:00+24ссз49527 0.0 1016637
23 июня, ср
ср2323:00+17сз11720 0.0 101611
02:00+15ссв238965 0.1 101736
05:00+12в41193100 0.3 1019326
08:00+15вюв4774100 0.0 1020448
11:00+15вюв1476100 0.1 1021228
14:00+20ю22495 0.0 10201071
17:00+22з224410 0.0 10191616
20:00+20зсз25641 0.0 1018195
24 июня, чт
чт2423:00+14сз12930 0.0 101813
02:00+13сз00940 0.0 101810
05:00+12з11955 0.0 101911
08:00+18з247397 0.0 1018386
11:00+22зсз346189 0.0 1017919
14:00+25зсз356397 0.4 10161321
17:00+20ююв118689 1.6 101512
20:00+22ю22863 0.6 101435
25 июня, пт
пт2523:00+18з2697100 1.0 1014138
02:00+16з1398100 0.1 101468
05:00+15юз2498100 0.1 101384
08:00+19з24895 0.0 1012277
11:00+25зсз34598 0.0 1011871
14:00+29зсз474782 0.0 10102066
17:00+30зсз584137 0.0 10082404
20:00+27зсз49583 0.0 1007572